QPF
0.00 0.00 0.00 0.00 0.00 0.00 0.00 0.00 0.00 0.00 0.00 0.00 0.00 0.00 0.00 0.00 0.00 0.00 0.00 0.00 0.00 0.00 0.00 0.00 0.00 0.00 0.00 0.00 0.00 0.00 0.00 0.00 0.00 0.00 0.00 0.00 0.00 0.00 0.00 0.00 0.00 0.00 0.00 0.00
0.00 0.00 0.00 0.00 0.00 0.00 0.00 0.00 0.00 0.00 0.00 0.00 0.00 0.00 0.00 0.00 0.00 0.00 0.00 0.00 0.00 0.00 0.00 0.00 0.00 0.00 0.00 0.00 0.00 0.00 0.00 0.00 0.00 0.00 0.00 0.00 0.00 0.00 0.00 0.00 0.00 0.00 0.00 0.00
0.00 0.00 0.00 0.00 0.00 0.00 0.00 0.00 0.00 0.00 0.00 0.00 0.00 0.00 0.00 0.00 0.00 0.00 0.00 0.00 0.00 0.00 0.00 0.00 0.00 0.00 0.00 0.00 0.00 0.00 0.00 0.00 0.00 0.00 0.00 0.00 0.00 0.00 0.00 0.00 0.00 0.00 0.00 0.00
0.00 0.00 0.00 0.00 0.00 0.00 0.00 0.00 0.00 0.00 0.00 0.00 0.00 0.00 0.00 0.00 0.00 0.00 0.00 0.00 0.00 0.00 0.00 0.00 0.00 0.00 0.00 0.00 0.00 0.00 0.00 0.00 0.00 0.00 0.00 0.00 0.00 0.00 0.00 0.00 0.00 0.00 0.00 0.00
0.00 0.00 0.00 0.00 0.00 0.00 0.00 0.00 0.00 0.00 0.00 0.00 0.00 0.00 0.00 0.00 0.00 0.00 0.00 0.00 0.00 0.00 0.00 0.00 0.00 0.00 0.00 0.00 0.00 0.00 0.00 0.00 0.00 0.00 0.00 0.00 0.00 0.00 0.00 0.00 0.00 0.00 0.00 0.00
0.00 0.00 0.00 0.00 0.00 0.00 0.00 0.00 0.00 0.00 0.00 0.00 0.00 0.00 0.00 0.00 0.00 0.00 0.00 0.00 0.00 0.00 0.00 0.00 0.00 0.00 0.00 0.00 0.00 0.00 0.00 0.00 0.00 0.00 0.00 0.00 0.00 0.00 0.00 0.00 0.00 0.00 0.00 0.00
0.00 0.00 0.00 0.00 0.00 0.00 0.00 0.00 0.00 0.00 0.00 0.00 0.00 0.00 0.00 0.00 0.00 0.00 0.00 0.00 0.00 0.00 0.00 0.00 0.00 0.00 0.00 0.00 0.00 0.00 0.00 0.00 0.00 0.00 0.00 0.00 0.00 0.00 0.00 0.00 0.00 0.00 0.00 0.00
0.00 0.00 0.00 0.00 0.00 0.00 0.00 0.00 0.00 0.00 0.00 0.00 0.00 0.00 0.00 0.00 0.00 0.00 0.00 0.00 0.00 0.00 0.00 0.00 0.00 0.00 0.00 0.00 0.00 0.00 0.00 0.00 0.00 0.00 0.00 0.00 0.00 0.00 0.00 0.00 0.00 0.00 0.00 0.00
0.00 0.00 0.00 0.00 0.00 0.00 0.00 0.00 0.00 0.00 0.00 0.00 0.00 0.00 0.00 0.00 0.00 0.00 0.00 0.00 0.00 0.00 0.00 0.00 0.00 0.00 0.00 0.00 0.00 0.00 0.00 0.00 0.00 0.00 0.00 0.00 0.00 0.00 0.00 0.00 0.00 0.00 0.00 0.00
0.00 0.00 0.00 0.00 0.00 0.00 0.00 0.00 0.00 0.00 0.00 0.00 0.00 0.00 0.00 0.00 0.00 0.00 0.00 0.00 0.00 0.00 0.00 0.00 0.00 0.00 0.00 0.00 0.00 0.00 0.00 0.00 0.00 0.00 0.00 0.00 0.00 0.00 0.00 0.00 0.00 0.00 0.00 0.00
0.00 0.00 0.00 0.00 0.00 0.00 0.00 0.00 0.00 0.00 0.00 0.00 0.00 0.00 0.00 0.00 0.00 0.00 0.00 0.00 0.00 0.00 0.00 0.00 0.00 0.00 0.00 0.00 0.00 0.00 0.00 0.00 0.00 0.00 0.00 0.00 0.00 0.00 0.00 0.00 0.00 0.00 0.00 0.00
0.00 0.00 0.00 0.00 0.00 0.00 0.00 0.00 0.00 0.00 0.00 0.00 0.00 0.00 0.00 0.00 0.00 0.00 0.00 0.00 0.00 0.00 0.00 0.00 0.00 0.00 0.00 0.00 0.00 0.00 0.00 0.00 0.00 0.00 0.00 0.00 0.00 0.00 0.00 0.00 0.00 0.00 0.00 0.00
0.00 0.00 0.00 0.00 0.00 0.00 0.00 0.00 0.00 0.00 0.00 0.00 0.00 0.00 0.00 0.00 0.00 0.00 0.00 0.00 0.00 0.00 0.00 0.00 0.00 0.00 0.00 0.00 0.00 0.00 0.00 0.00 0.00 0.00 0.00 0.00 0.00 0.00 0.00 0.00 0.00 0.00 0.00 0.00
0.00 0.00 0.00 0.00 0.00 0.00 0.00 0.00 0.00 0.00 0.00 0.00 0.00 0.00 0.00 0.00 0.00 0.00 0.00 0.00 0.00 0.00 0.00 0.00 0.00 0.00 0.00 0.00 0.00 0.00 0.00 0.00 0.00 0.00 0.00 0.00 0.00 0.00 0.00 0.00 0.00 0.00 0.00 0.00
0.00 0.00 0.00 0.00 0.00 0.00 0.00 0.00 0.00 0.00 0.00 0.00 0.00 0.00 0.00 0.00 0.00 0.00 0.00 0.00 0.00 0.00 0.00 0.00 0.00 0.00 0.00 0.00 0.00 0.00 0.00 0.00 0.00 0.00 0.00 0.00 0.00 0.00 0.00 0.00 0.00 0.00 0.00 0.00
0.00 0.00 0.00 0.00 0.00 0.00 0.00 0.00 0.00 0.00 0.00 0.00 0.00 0.00 0.00 0.00 0.00 0.00 0.00 0.00 0.00 0.00 0.00 0.00 0.00 0.00 0.00 0.00 0.00 0.00 0.00 0.00 0.00 0.00 0.00 0.00 0.00 0.00 0.00 0.00 0.00 0.00 0.00 0.00
0.00 0.00 0.00 0.00 0.00 0.00 0.00 0.00 0.00 0.00 0.00 0.00 0.00 0.00 0.00 0.00 0.00 0.00 0.00 0.00 0.00 0.00 0.00 0.00 0.00 0.00 0.00 0.00 0.00 0.00 0.00 0.00 0.00 0.00 0.00 0.00 0.00 0.00 0.00 0.01 0.01 0.01 0.01 0.00
0.00 0.00 0.00 0.00 0.00 0.00 0.00 0.00 0.00 0.00 0.00 0.00 0.00 0.00 0.00 0.00 0.00 0.00 0.00 0.00 0.00 0.00 0.00 0.00 0.00 0.00 0.00 0.00 0.00 0.00 0.00 0.00 0.00 0.00 0.00 0.00 0.00 0.00 0.01 0.01 0.01 0.01 0.00 0.00
0.00 0.00 0.00 0.00 0.00 0.00 0.00 0.00 0.00 0.00 0.00 0.00 0.00 0.00 0.00 0.00 0.00 0.00 0.00 0.00 0.00 0.00 0.00 0.00 0.00 0.00 0.00 0.00 0.00 0.00 0.00 0.00 0.00 0.00 0.00 0.00 0.00 0.01 0.01 0.01 0.01 0.01 0.01 0.01
0.00 0.00 0.00 0.00 0.00 0.00 0.00 0.00 0.00 0.00 0.00 0.00 0.00 0.00 0.00 0.00 0.00 0.00 0.00 0.00 0.00 0.00 0.00 0.00 0.00 0.00 0.00 0.00 0.00 0.00 0.00 0.00 0.00 0.00 0.00 0.01 0.01 0.01 0.01 0.01 0.01 0.01 0.01 0.01
0.00 0.00 0.00 0.00 0.00 0.00 0.00 0.00 0.00 0.00 0.00 0.00 0.00 0.00 0.00 0.00 0.00 0.00 0.00 0.00 0.00 0.00 0.00 0.00 0.00 0.00 0.00 0.00 0.00 0.00 0.00 0.00 0.00 0.01 0.01 0.01 0.01 0.01 0.01 0.01 0.01 0.01 0.01 0.01
0.00 0.00 0.00 0.00 0.00 0.00 0.00 0.00 0.00 0.00 0.00 0.00 0.00 0.00 0.00 0.00 0.00 0.00 0.00 0.00 0.00 0.00 0.00 0.00 0.00 0.00 0.00 0.00 0.00 0.00 0.00 0.00 0.00 0.01 0.01 0.01 0.01 0.01 0.01 0.01 0.01 0.01 0.01 0.00
0.00 0.00 0.00 0.00 0.00 0.00 0.00 0.00 0.00 0.00 0.00 0.00 0.00 0.00 0.00 0.00 0.00 0.00 0.00 0.00 0.00 0.00 0.00 0.00 0.00 0.00 0.00 0.00 0.00 0.00 0.00 0.00 0.00 0.01 0.01 0.01 0.01 0.01 0.01 0.01 0.01 0.01 0.01 0.01
0.00 0.00 0.00 0.00 0.00 0.00 0.00 0.00 0.00 0.00 0.00 0.00 0.00 0.00 0.00 0.00 0.00 0.00 0.00 0.00 0.00 0.00 0.00 0.00 0.00 0.00 0.00 0.00 0.00 0.00 0.00 0.00 0.01 0.01 0.01 0.01 0.01 0.01 0.01 0.01 0.01 0.01 0.01 0.01
0.00 0.00 0.00 0.00 0.00 0.00 0.00 0.00 0.00 0.00 0.00 0.00 0.00 0.00 0.00 0.00 0.00 0.00 0.00 0.00 0.00 0.00 0.00 0.00 0.00 0.00 0.00 0.00 0.00 0.00 0.00 0.00 0.01 0.01 0.01 0.01 0.01 0.01 0.01 0.01 0.01 0.01 0.01 0.01
0.00 0.00 0.00 0.00 0.00 0.00 0.00 0.00 0.00 0.00 0.00 0.00 0.00 0.00 0.00 0.00 0.00 0.00 0.00 0.00 0.00 0.00 0.00 0.00 0.00 0.00 0.00 0.00 0.00 0.00 0.00 0.00 0.01 0.01 0.01 0.01 0.01 0.01 0.01 0.01 0.01 0.01 0.01 0.01
0.00 0.00 0.00 0.00 0.00 0.00 0.00 0.00 0.00 0.00 0.00 0.00 0.00 0.00 0.00 0.00 0.00 0.00 0.00 0.00 0.00 0.00 0.00 0.00 0.00 0.00 0.00 0.00 0.00 0.00 0.00 0.01 0.01 0.01 0.01 0.01 0.01 0.01 0.01 0.01 0.01 0.01 0.01 0.01
MSLP
1010.16 1010.62 1011.02 1011.34 1011.53 1011.58 1011.49 1011.25 1010.90 1010.46 1009.98 1009.51 1009.09 1008.76 1008.54 1008.44 1008.46 1008.61 1008.85 1009.21 1009.65 1010.20 1010.83 1011.56 1012.37 1013.25 1014.18 1015.12 1016.03 1016.89 1017.65 1018.30 1018.83 1019.25 1019.55 1019.78 1019.95 1020.07 1020.16 1020.21 1020.22 1020.17 1020.06 1019.87
1010.00 1010.35 1010.61 1010.75 1010.76 1010.65 1010.43 1010.12 1009.75 1009.36 1008.98 1008.64 1008.36 1008.16 1008.04 1008.01 1008.04 1008.16 1008.35 1008.63 1009.01 1009.51 1010.13 1010.88 1011.74 1012.70 1013.72 1014.76 1015.77 1016.70 1017.52 1018.20 1018.74 1019.14 1019.42 1019.62 1019.75 1019.84 1019.89 1019.91 1019.89 1019.82 1019.67 1019.46
1009.91 1010.13 1010.22 1010.19 1010.03 1009.77 1009.44 1009.07 1008.70 1008.36 1008.07 1007.85 1007.72 1007.65 1007.64 1007.68 1007.76 1007.88 1008.06 1008.31 1008.65 1009.12 1009.73 1010.49 1011.38 1012.38 1013.45 1014.54 1015.59 1016.55 1017.38 1018.06 1018.58 1018.96 1019.21 1019.37 1019.47 1019.53 1019.56 1019.55 1019.51 1019.41 1019.25 1019.01
1009.81 1009.87 1009.80 1009.61 1009.31 1008.93 1008.52 1008.12 1007.77 1007.49 1007.30 1007.21 1007.21 1007.27 1007.38 1007.52 1007.67 1007.84 1008.04 1008.29 1008.64 1009.10 1009.70 1010.45 1011.34 1012.33 1013.40 1014.47 1015.50 1016.43 1017.23 1017.87 1018.35 1018.69 1018.91 1019.04 1019.12 1019.15 1019.16 1019.14 1019.07 1018.96 1018.78 1018.53
1009.56 1009.47 1009.26 1008.94 1008.54 1008.10 1007.66 1007.27 1006.96 1006.76 1006.69 1006.73 1006.86 1007.07 1007.31 1007.56 1007.81 1008.05 1008.31 1008.60 1008.97 1009.43 1010.03 1010.75 1011.60 1012.54 1013.54 1014.55 1015.50 1016.35 1017.07 1017.64 1018.06 1018.35 1018.53 1018.63 1018.69 1018.71 1018.70 1018.66 1018.59 1018.46 1018.25 1017.98
1009.09 1008.87 1008.56 1008.16 1007.71 1007.25 1006.83 1006.49 1006.27 1006.18 1006.23 1006.41 1006.69 1007.03 1007.41 1007.78 1008.14 1008.49 1008.82 1009.17 1009.57 1010.05 1010.62 1011.31 1012.09 1012.94 1013.83 1014.72 1015.54 1016.27 1016.88 1017.36 1017.71 1017.94 1018.08 1018.16 1018.20 1018.20 1018.19 1018.14 1018.04 1017.89 1017.66 1017.36
1008.35 1008.05 1007.67 1007.25 1006.81 1006.40 1006.05 1005.82 1005.71 1005.75 1005.94 1006.25 1006.66 1007.14 1007.64 1008.14 1008.61 1009.06 1009.48 1009.89 1010.33 1010.82 1011.37 1012.00 1012.69 1013.43 1014.18 1014.92 1015.60 1016.19 1016.68 1017.05 1017.32 1017.49 1017.59 1017.65 1017.66 1017.66 1017.62 1017.55 1017.43 1017.25 1016.99 1016.65
1007.38 1007.04 1006.66 1006.27 1005.90 1005.59 1005.36 1005.26 1005.29 1005.47 1005.79 1006.23 1006.77 1007.36 1007.97 1008.57 1009.14 1009.67 1010.17 1010.65 1011.12 1011.61 1012.13 1012.69 1013.28 1013.89 1014.50 1015.09 1015.62 1016.07 1016.43 1016.71 1016.90 1017.02 1017.09 1017.12 1017.11 1017.09 1017.02 1016.92 1016.76 1016.53 1016.22 1015.85
1006.30 1005.96 1005.63 1005.32 1005.06 1004.88 1004.81 1004.86 1005.04 1005.35 1005.79 1006.34 1006.96 1007.64 1008.32 1009.00 1009.64 1010.24 1010.79 1011.31 1011.80 1012.28 1012.77 1013.26 1013.76 1014.25 1014.73 1015.17 1015.57 1015.90 1016.16 1016.35 1016.48 1016.56 1016.59 1016.59 1016.56 1016.49 1016.39 1016.23 1016.02 1015.73 1015.37 1014.95
1005.23 1004.94 1004.69 1004.50 1004.39 1004.36 1004.45 1004.65 1004.96 1005.39 1005.93 1006.54 1007.23 1007.94 1008.67 1009.38 1010.05 1010.69 1011.27 1011.81 1012.30 1012.77 1013.22 1013.65 1014.06 1014.45 1014.82 1015.15 1015.43 1015.67 1015.85 1015.98 1016.06 1016.11 1016.11 1016.08 1016.01 1015.90 1015.73 1015.52 1015.23 1014.88 1014.46 1013.99
1004.33 1004.12 1003.98 1003.92 1003.96 1004.09 1004.32 1004.65 1005.07 1005.59 1006.18 1006.83 1007.53 1008.26 1008.98 1009.69 1010.37 1011.00 1011.59 1012.12 1012.61 1013.05 1013.46 1013.83 1014.17 1014.48 1014.76 1015.00 1015.21 1015.38 1015.51 1015.60 1015.65 1015.67 1015.64 1015.57 1015.46 1015.29 1015.06 1014.77 1014.41 1013.98 1013.50 1012.99
1003.70 1003.60 1003.57 1003.65 1003.82 1004.08 1004.43 1004.86 1005.36 1005.93 1006.54 1007.20 1007.88 1008.58 1009.27 1009.95 1010.60 1011.21 1011.77 1012.29 1012.75 1013.16 1013.52 1013.85 1014.13 1014.37 1014.59 1014.77 1014.92 1015.04 1015.13 1015.19 1015.22 1015.21 1015.16 1015.05 1014.89 1014.65 1014.36 1013.98 1013.55 1013.06 1012.53 1011.98
1003.39 1003.38 1003.47 1003.66 1003.95 1004.32 1004.76 1005.25 1005.80 1006.38 1006.99 1007.62 1008.27 1008.92 1009.56 1010.19 1010.79 1011.36 1011.89 1012.37 1012.80 1013.17 1013.49 1013.76 1013.99 1014.18 1014.34 1014.47 1014.57 1014.66 1014.72 1014.75 1014.76 1014.72 1014.63 1014.48 1014.26 1013.97 1013.60 1013.16 1012.66 1012.12 1011.55 1010.98
1003.37 1003.46 1003.65 1003.93 1004.30 1004.74 1005.24 1005.78 1006.34 1006.92 1007.51 1008.10 1008.70 1009.30 1009.89 1010.46 1011.02 1011.54 1012.02 1012.46 1012.84 1013.16 1013.43 1013.65 1013.82 1013.95 1014.05 1014.12 1014.18 1014.22 1014.25 1014.25 1014.21 1014.14 1014.01 1013.81 1013.54 1013.19 1012.77 1012.27 1011.73 1011.15 1010.57 1010.00
1003.57 1003.74 1004.01 1004.37 1004.80 1005.30 1005.83 1006.38 1006.94 1007.51 1008.07 1008.63 1009.18 1009.73 1010.27 1010.80 1011.30 1011.78 1012.21 1012.59 1012.92 1013.18 1013.39 1013.54 1013.64 1013.70 1013.73 1013.74 1013.74 1013.72 1013.69 1013.64 1013.56 1013.44 1013.26 1013.02 1012.70 1012.30 1011.84 1011.31 1010.74 1010.15 1009.57 1009.02
1003.91 1004.15 1004.49 1004.90 1005.38 1005.91 1006.46 1007.02 1007.58 1008.13 1008.67 1009.20 1009.72 1010.22 1010.72 1011.20 1011.66 1012.08 1012.46 1012.79 1013.05 1013.24 1013.37 1013.44 1013.45 1013.43 1013.38 1013.31 1013.23 1013.14 1013.04 1012.93 1012.78 1012.60 1012.37 1012.08 1011.71 1011.29 1010.79 1010.26 1009.69 1009.12 1008.56 1008.04
1004.32 1004.63 1005.02 1005.48 1005.99 1006.54 1007.10 1007.66 1008.22 1008.75 1009.28 1009.78 1010.28 1010.75 1011.21 1011.65 1012.06 1012.43 1012.74 1013.00 1013.18 1013.29 1013.33 1013.31 1013.23 1013.11 1012.97 1012.80 1012.63 1012.46 1012.28 1012.09 1011.87 1011.63 1011.34 1011.00 1010.61 1010.16 1009.66 1009.13 1008.58 1008.04 1007.53 1007.06
1004.78 1005.14 1005.58 1006.08 1006.62 1007.18 1007.74 1008.31 1008.85 1009.38 1009.88 1010.37 1010.83 1011.28 1011.70 1012.09 1012.44 1012.74 1012.98 1013.15 1013.25 1013.27 1013.21 1013.09 1012.92 1012.70 1012.46 1012.20 1011.94 1011.67 1011.41 1011.14 1010.86 1010.55 1010.22 1009.84 1009.42 1008.96 1008.47 1007.96 1007.45 1006.95 1006.49 1006.07
1005.29 1005.70 1006.18 1006.71 1007.26 1007.83 1008.40 1008.95 1009.48 1009.99 1010.47 1010.92 1011.35 1011.74 1012.11 1012.43 1012.71 1012.93 1013.09 1013.17 1013.17 1013.09 1012.94 1012.73 1012.46 1012.16 1011.83 1011.49 1011.15 1010.81 1010.48 1010.14 1009.80 1009.44 1009.06 1008.65 1008.21 1007.76 1007.28 1006.80 1006.33 1005.89 1005.48 1005.11
1005.88 1006.34 1006.85 1007.39 1007.95 1008.51 1009.06 1009.59 1010.09 1010.56 1011.00 1011.40 1011.77 1012.10 1012.39 1012.63 1012.82 1012.95 1013.01 1012.99 1012.89 1012.73 1012.49 1012.20 1011.86 1011.49 1011.10 1010.71 1010.31 1009.92 1009.53 1009.15 1008.76 1008.37 1007.96 1007.53 1007.08 1006.63 1006.17 1005.72 1005.29 1004.88 1004.52 1004.20
1006.59 1007.08 1007.60 1008.15 1008.69 1009.23 1009.75 1010.23 1010.68 1011.09 1011.46 1011.78 1012.06 1012.30 1012.50 1012.64 1012.72 1012.75 1012.70 1012.59 1012.41 1012.17 1011.87 1011.52 1011.13 1010.73 1010.31 1009.88 1009.46 1009.05 1008.64 1008.23 1007.82 1007.40 1006.97 1006.53 1006.08 1005.63 1005.18 1004.75 1004.35 1003.98 1003.65 1003.37
1007.43 1007.93 1008.45 1008.97 1009.49 1009.97 1010.43 1010.84 1011.21 1011.53 1011.81 1012.04 1012.21 1012.34 1012.42 1012.45 1012.43 1012.35 1012.21 1012.01 1011.76 1011.45 1011.11 1010.73 1010.33 1009.91 1009.49 1009.07 1008.65 1008.24 1007.83 1007.42 1007.00 1006.57 1006.13 1005.69 1005.24 1004.79 1004.35 1003.93 1003.55 1003.20 1002.89 1002.62
1008.38 1008.88 1009.37 1009.84 1010.29 1010.70 1011.07 1011.39 1011.66 1011.87 1012.04 1012.15 1012.21 1012.22 1012.19 1012.11 1011.98 1011.80 1011.57 1011.31 1011.00 1010.66 1010.29 1009.91 1009.51 1009.11 1008.71 1008.32 1007.92 1007.53 1007.13 1006.73 1006.32 1005.89 1005.45 1005.00 1004.54 1004.09 1003.65 1003.24 1002.85 1002.51 1002.20 1001.93
1009.39 1009.85 1010.28 1010.68 1011.05 1011.36 1011.62 1011.83 1011.99 1012.08 1012.13 1012.13 1012.07 1011.98 1011.84 1011.65 1011.43 1011.18 1010.89 1010.57 1010.23 1009.87 1009.50 1009.12 1008.74 1008.37 1008.00 1007.64 1007.27 1006.90 1006.53 1006.13 1005.73 1005.30 1004.86 1004.40 1003.94 1003.48 1003.04 1002.61 1002.22 1001.87 1001.55 1001.27
1010.37 1010.77 1011.13 1011.44 1011.70 1011.90 1012.05 1012.14 1012.17 1012.16 1012.09 1011.98 1011.83 1011.64 1011.41 1011.16 1010.87 1010.56 1010.22 1009.87 1009.51 1009.14 1008.77 1008.41 1008.05 1007.70 1007.35 1007.01 1006.67 1006.31 1005.95 1005.57 1005.16 1004.73 1004.28 1003.82 1003.34 1002.87 1002.42 1001.98 1001.58 1001.21 1000.88 1000.57
1011.27 1011.59 1011.85 1012.06 1012.20 1012.29 1012.32 1012.29 1012.22 1012.10 1011.94 1011.75 1011.52 1011.26 1010.97 1010.66 1010.33 1009.99 1009.62 1009.25 1008.88 1008.51 1008.14 1007.77 1007.42 1007.07 1006.73 1006.40 1006.05 1005.70 1005.33 1004.94 1004.52 1004.08 1003.62 1003.14 1002.66 1002.18 1001.71 1001.26 1000.84 1000.45 1000.10 999.77
1012.02 1012.25 1012.41 1012.51 1012.54 1012.51 1012.43 1012.31 1012.14 1011.93 1011.70 1011.44 1011.16 1010.86 1010.54 1010.20 1009.85 1009.48 1009.11 1008.72 1008.33 1007.94 1007.56 1007.18 1006.81 1006.45 1006.09 1005.73 1005.36 1004.98 1004.59 1004.17 1003.73 1003.28 1002.80 1002.31 1001.81 1001.32 1000.84 1000.38 999.95 999.55 999.17 998.82
Thickness
5597 5603 5599 5600 5603 5602 5598 5600 5596 5607 5612 5627 5632 5632 5633 5632 5628 5623 5620 5618 5614 5609 5602 5594 5585 5578 5570 5562 5554 5547 5539 5531 5524 5518 5512 5506 5500 5495 5490 5485 5480 5476 5471 5467
5591 5596 5594 5595 5599 5599 5600 5602 5601 5605 5612 5629 5629 5628 5626 5624 5621 5619 5617 5615 5610 5604 5595 5587 5579 5571 5561 5553 5544 5537 5529 5521 5515 5508 5501 5495 5490 5484 5479 5474 5469 5464 5460 5456
5574 5587 5587 5582 5596 5598 5599 5603 5604 5604 5620 5626 5622 5621 5621 5621 5618 5617 5615 5610 5604 5598 5591 5582 5573 5564 5554 5544 5535 5526 5519 5511 5504 5498 5491 5485 5479 5473 5468 5463 5458 5453 5449 5445
5564 5570 5562 5593 5607 5607 5604 5608 5609 5612 5618 5620 5620 5620 5618 5617 5615 5612 5609 5603 5596 5588 5580 5571 5562 5553 5543 5533 5524 5516 5508 5501 5494 5487 5481 5475 5468 5463 5457 5453 5448 5443 5439 5435
5549 5554 5566 5584 5599 5601 5598 5601 5611 5610 5613 5613 5611 5608 5607 5609 5608 5605 5600 5594 5586 5578 5568 5559 5550 5541 5531 5522 5513 5505 5497 5490 5484 5477 5470 5464 5458 5452 5448 5443 5438 5433 5429 5424
5542 5549 5556 5583 5601 5606 5599 5592 5610 5608 5606 5602 5597 5591 5598 5600 5595 5590 5584 5578 5570 5561 5554 5545 5536 5529 5520 5510 5501 5494 5488 5481 5474 5467 5460 5454 5449 5443 5439 5433 5429 5424 5420 5414
5541 5546 5559 5583 5594 5594 5580 5592 5608 5604 5600 5592 5590 5593 5589 5582 5578 5573 5567 5561 5555 5548 5540 5531 5523 5516 5506 5497 5490 5484 5478 5470 5463 5457 5450 5445 5439 5434 5428 5424 5419 5414 5409 5404
5538 5539 5555 5584 5581 5583 5591 5597 5597 5595 5591 5585 5581 5574 5569 5565 5560 5555 5550 5544 5539 5532 5523 5516 5510 5503 5494 5486 5480 5473 5466 5459 5453 5446 5440 5435 5429 5423 5418 5412 5406 5402 5397 5393
5561 5569 5580 5582 5584 5588 5587 5586 5586 5583 5579 5573 5565 5560 5555 5549 5544 5540 5536 5530 5524 5517 5509 5501 5495 5490 5481 5474 5468 5461 5454 5448 5442 5436 5430 5424 5418 5412 5407 5400 5394 5389 5383 5380
5556 5564 5572 5574 5576 5578 5577 5578 5576 5572 5566 5561 5556 5549 5542 5535 5530 5525 5521 5515 5509 5503 5495 5487 5481 5475 5469 5462 5456 5449 5442 5436 5430 5425 5419 5414 5408 5402 5395 5388 5381 5376 5370 5366
5552 5561 5564 5567 5567 5568 5567 5566 5563 5560 5556 5551 5546 5538 5531 5524 5518 5513 5507 5501 5495 5489 5482 5474 5468 5462 5456 5450 5444 5437 5431 5425 5419 5414 5409 5404 5398 5391 5385 5379 5369 5363 5358 5351
5556 5559 5558 5562 5563 5559 5556 5554 5552 5548 5542 5538 5535 5528 5520 5513 5506 5500 5493 5487 5480 5474 5467 5461 5455 5449 5444 5439 5433 5426 5420 5414 5409 5403 5398 5392 5387 5383 5378 5369 5363 5354 5345 5337
5557 5556 5554 5556 5554 5551 5548 5545 5541 5537 5533 5526 5521 5516 5509 5500 5493 5487 5480 5474 5468 5461 5455 5448 5443 5437 5433 5427 5422 5415 5409 5404 5398 5392 5386 5380 5374 5369 5367 5364 5354 5344 5333 5324
5544 5543 5542 5543 5542 5540 5537 5532 5527 5522 5518 5513 5507 5501 5495 5487 5480 5473 5467 5461 5455 5448 5442 5436 5431 5426 5422 5417 5411 5405 5399 5394 5389 5382 5375 5368 5362 5355 5349 5345 5342 5337 5325 5313
5533 5536 5536 5532 5528 5524 5521 5516 5511 5505 5501 5496 5492 5487 5481 5474 5467 5460 5454 5448 5442 5435 5430 5425 5420 5416 5412 5406 5401 5395 5389 5383 5377 5371 5364 5357 5350 5343 5335 5328 5323 5320 5315 5306
5521 5519 5517 5516 5514 5510 5506 5503 5499 5492 5487 5483 5477 5472 5467 5461 5453 5447 5441 5435 5429 5424 5419 5414 5409 5406 5401 5396 5391 5385 5379 5375 5369 5361 5354 5346 5338 5329 5322 5315 5309 5304 5298 5292
5510 5506 5504 5502 5500 5497 5494 5492 5488 5482 5476 5470 5465 5458 5452 5446 5439 5433 5428 5423 5418 5413 5408 5403 5400 5396 5391 5386 5380 5374 5368 5362 5358 5350 5341 5332 5324 5317 5309 5302 5297 5291 5286 5279
5511 5509 5504 5500 5495 5488 5483 5478 5474 5468 5463 5457 5451 5445 5439 5433 5428 5422 5416 5410 5405 5400 5397 5393 5390 5385 5380 5375 5369 5363 5356 5350 5343 5335 5327 5319 5312 5305 5298 5291 5285 5279 5275 5271
5497 5495 5491 5487 5483 5478 5472 5466 5460 5454 5449 5443 5438 5432 5427 5421 5415 5409 5403 5397 5393 5389 5387 5384 5381 5376 5370 5364 5359 5352 5344 5337 5330 5323 5315 5309 5302 5294 5286 5279 5274 5269 5264 5261
5482 5480 5476 5472 5468 5463 5457 5451 5446 5440 5435 5430 5424 5418 5412 5407 5402 5397 5391 5386 5383 5380 5378 5374 5369 5364 5359 5353 5347 5339 5331 5324 5317 5311 5303 5296 5289 5283 5276 5270 5264 5260 5256 5252
5466 5463 5460 5456 5451 5447 5443 5438 5433 5426 5420 5416 5412 5406 5400 5395 5389 5384 5379 5376 5375 5371 5367 5364 5358 5352 5346 5341 5336 5327 5319 5311 5304 5297 5290 5283 5277 5272 5266 5261 5256 5252 5248 5244
5449 5447 5443 5440 5435 5429 5425 5421 5417 5412 5407 5402 5397 5392 5387 5382 5377 5373 5369 5365 5365 5362 5357 5351 5345 5340 5334 5330 5322 5314 5305 5298 5290 5283 5277 5271 5265 5261 5256 5251 5247 5243 5240 5237
5432 5430 5427 5423 5418 5412 5407 5404 5401 5397 5393 5388 5384 5379 5375 5371 5366 5362 5360 5357 5353 5349 5345 5338 5333 5328 5323 5316 5307 5299 5292 5284 5277 5271 5266 5260 5255 5250 5246 5243 5239 5236 5233 5230
5414 5411 5407 5403 5400 5396 5391 5387 5385 5382 5377 5374 5370 5367 5363 5359 5355 5351 5348 5346 5342 5337 5331 5325 5320 5314 5308 5300 5292 5285 5278 5271 5266 5260 5256 5251 5247 5242 5238 5235 5232 5230 5228 5226
5395 5392 5389 5387 5384 5380 5377 5373 5370 5367 5364 5360 5357 5354 5350 5347 5343 5340 5335 5331 5327 5323 5317 5311 5305 5299 5292 5284 5277 5271 5265 5260 5255 5251 5247 5243 5239 5235 5231 5229 5227 5225 5224 5223
5379 5376 5374 5371 5369 5366 5363 5360 5357 5354 5352 5349 5346 5342 5338 5334 5330 5326 5321 5317 5312 5307 5301 5295 5289 5283 5277 5270 5265 5260 5255 5251 5246 5241 5237 5234 5231 5228 5226 5224 5223 5222 5221 5221
5362 5360 5358 5356 5354 5352 5349 5347 5344 5341 5338 5335 5332 5329 5325 5321 5316 5312 5307 5302 5297 5292 5286 5281 5275 5269 5264 5259 5254 5250 5246 5242 5238 5234 5231 5228 5225 5223 5222 5221 5221 5221 5220 5221